Погода в Носове

Россия / Псковская область     57°06′35″N   27°49′08″E
темп.,
°C
ветер,
м/с
пор.,
м/с
влажн.,
%
обл.,
%
осадки,
мм/ч
давл.,
гПа
погр.,
м
17 октября, вс
вс1700:00+7зюз7127999 0.1 1008943
03:00+8зюз71379100 0.1 10081062
06:00+8зюз61169100 0.1 10081234
09:00+8зюз61075100 0.1 10081247
12:00+10зюз696188 0.0 10091182
15:00+7зюз5780100 0.5 1010909
18:00+6зюз3788100 0.9 1010827
21:00+5з3793100 0.9 1010271
18 октября, пн
пн1800:00+3зюз38955 0.0 1010192
03:00+3зюз410935 0.0 1011248
06:00+2зюз512873 0.0 1011344
09:00+3з614835 0.0 1012503
12:00+7зсз7116437 0.0 10131324
15:00+8зсз71063100 0.3 10131328
18:00+5зсз51074100 0.1 1014515
21:00+3зсз498741 0.1 1016295
19 октября, вт
вт1900:00+2зсз4109310 0.0 1018266
03:00+1зсз410945 0.0 1019243
06:000зсз499517 0.0 1021271
09:000зсз410915 0.0 1022340
12:00+4сз57595 0.0 1023871
15:00+6сз56455 0.0 10231134
18:00+2зсз226098 0.0 102424
21:00+1зсз1162100 0.0 102410
20 октября, ср
ср2000:00+1ю226398 0.0 102333
03:000ююв367285 0.0 1021111
06:00+2ююв41073100 0.0 1018455
09:00+3ююв61391100 0.6 1015548
12:00+4ю61388100 0.1 1011568
15:00+5ю61391100 0.9 1007564
18:00+6ю71595100 2.9 1004611
21:00+9ююз71596100 4.8 1001505
21 октября, чт
чт2100:00+12юз81793100 0.0 998804
03:00+12юз81789100 0.1 996798
06:00+13юз81689100 0.0 995988
09:00+13юз91687100 0.0 994955
12:00+13юз81583100 0.0 9941054
15:00+14юз91779100 0.0 9921161
18:00+13зюз9177152 0.5 9901352
21:00+11юз122175100 1.1 9911532